[[{"header":{"parameterUnit":"m.s-1","parameterCategory":1,"la1":30.2991,"la2":30.254,"lo1":-89.0895,"lo2":-89.0444,"dy":0.0017,"dx":0.0017,"nx":28,"ny":28,"refTime":"2025-07-21T21:00:00:Z","depth":0,"parameterNumber":2,"parameterNumberName":"U-component_of_WINDS"},"data":[0,0,0,0,0,0,0,0,0,0,0,0,0,0,0,0,0,0,0,0,0,0,0,0,0,0,0,0,0,0,0,0,0,0,0,0,0,0,0,0,0,0,0,0,0,0,0,0,0,0,0,0,0,0,0,0,0,0,3.0775,3.0777,0,3.0931,3.0933,3.0935,3.0948,3.0947,3.0945,3.0943,3.1107,3.1112,3.1118,0,0,0,0,0,0,0,0,0,0,0,0,0,3.0491,3.0496,3.0775,3.0777,3.0779,3.0931,3.0933,3.0935,3.0949,3.0947,3.0945,3.0943,3.1105,3.1112,3.1119,0,0,0,0,0,0,0,0,0,0,0,0,0,3.0628,3.0498,3.0774,3.0804,3.0808,3.0931,3.0933,3.0936,3.0949,3.0947,3.0944,3.0942,3.1102,3.1111,3.112,3.1225,0,0,3.1147,3.1151,0,0,0,0,0,0,0,0,3.062,3.0638,3.0797,3.0802,3.0807,3.0918,3.0893,3.1033,3.095,3.0896,3.0943,3.094,3.1046,3.1059,3.1094,3.1233,3.124,3.1148,3.1153,3.1157,3.1159,0,0,0,0,0,0,0,3.0611,3.0632,3.0837,3.08,3.0806,3.081,3.0827,3.092,3.0983,3.09,3.0901,3.092,3.1048,3.1086,3.1098,3.1242,3.1147,3.1155,3.1161,3.1164,3.1474,3.1477,0,0,0,0,0,0,3.0595,3.0624,3.0832,3.0841,3.0705,3.0817,3.0836,3.0885,3.0982,3.0994,3.0922,3.092,3.1072,3.1088,3.1104,3.1233,3.1157,3.1165,3.117,3.1472,3.1475,3.1478,0,0,0,0,0,0,3.0589,3.0614,3.0826,3.0733,3.076,3.0825,3.088,3.0889,3.0927,3.0998,3.101,3.0948,3.107,3.1092,3.1194,3.1238,3.1169,3.1177,3.1468,3.1473,3.1477,3.1491,0,0,0,0,0,0,3.0581,3.0611,3.0651,3.0734,3.0765,3.0912,3.0882,3.0894,3.0941,3.094,3.1026,3.1038,3.107,3.1181,3.1203,3.1249,3.1184,3.1464,3.147,3.1475,3.1487,3.1495,3.1503,0,0,0,0,0,3.0571,3.0649,3.0653,3.0678,3.0816,3.0915,3.0933,3.0967,3.0945,3.0986,3.1032,3.1035,3.1231,3.1192,3.1217,3.1266,3.1462,3.1468,3.1475,3.1483,3.1494,3.1503,0,0,0,0,0,0,3.0571,3.0661,3.0665,3.0773,3.0836,3.0917,3.0969,3.0977,3.1048,3.1044,3.1085,3.1104,3.1206,3.1247,3.1202,3.1373,3.1344,3.1356,3.1342,3.1352,3.136,3.1347,3.1191,0,0,0,0,0,3.0583,3.0655,3.073,3.0818,3.0849,3.0904,3.0948,3.0969,3.1036,3.1063,3.1117,3.1183,3.1259,3.1309,3.1383,3.1494,3.1513,3.1541,3.1548,3.1555,3.1564,3.1625,3.1638,3.15,3.15,3.15,0,0,3.061,3.0668,3.0711,3.082,3.0871,3.0945,3.0926,3.1005,3.1061,3.1076,3.1175,3.1218,3.1294,3.1401,3.1451,3.1438,3.1606,3.1563,3.1567,3.1573,3.1633,3.1646,3.1658,3.1504,3.1503,3.1503,0,0,3.0695,3.0747,3.0825,3.0877,3.0955,3.0991,3.101,3.109,3.1118,3.1218,3.1231,3.1299,3.1429,3.1483,3.1527,3.1635,3.164,3.1659,3.1699,3.1758,3.1769,3.1779,3.1816,3.1829,3.1668,3.1668,3.1668,0,3.0718,3.0829,3.0865,3.0944,3.0991,3.1008,3.1088,3.1137,3.1235,3.1268,3.1253,3.1417,3.147,3.1589,3.1615,3.1652,3.1674,3.1647,3.1764,3.1775,3.1784,3.182,3.1834,3.1669,3.1669,3.1669,3.1669,0,3.0854,3.0931,3.0985,3.1078,3.1132,3.1212,3.126,3.1311,3.1328,3.1366,3.1469,3.1533,3.162,3.1651,3.1669,3.1773,3.1763,3.1756,3.1727,3.1798,3.1832,3.1847,3.1672,3.1671,3.1671,3.167,0,0,3.0941,3.1054,3.1073,3.1115,3.1203,3.1264,3.1345,3.1429,3.1471,3.154,3.1608,3.1719,3.1712,3.1763,3.1788,3.184,3.192,3.1826,3.1829,3.184,3.2038,3.2041,3.2056,3.1925,3.1928,3.193,3.2031,0,3.1035,3.1177,3.1212,3.1334,3.1405,3.1423,3.1494,3.1556,3.1594,3.1661,3.1704,3.1781,3.1768,3.1799,3.1851,3.1898,3.196,3.1892,3.1989,3.1992,3.1966,3.2075,3.2078,3.217,3.2045,3.2047,3.2049,0,3.1163,3.1232,3.1361,3.1439,3.1471,3.1533,3.1613,3.1677,3.1749,3.1773,3.183,3.1849,3.1935,3.1904,3.2022,3.1975,3.2018,3.2047,3.2052,3.206,3.2023,3.2084,3.22,3.2213,3.2071,3.2069,3.2067,0,3.1211,3.1338,3.1431,3.1467,3.1561,3.1604,3.1646,3.1715,3.1763,3.1835,3.1867,3.1947,3.1991,3.2054,3.2095,3.2068,3.221,3.2182,3.2232,3.2231,3.2259,3.2256,3.2381,3.229,3.229,3.2289,3.2289,0,3.1311,3.1388,3.1453,3.151,3.1598,3.1639,3.1725,3.1768,3.1829,3.1895,3.1917,3.1979,3.2031,3.21,3.2134,3.2226,3.2246,3.2268,3.2276,3.2265,3.2262,3.2291,3.2285,3.2293,3.2292,3.2291,3.2291,0,3.1378,3.1425,3.1528,3.1609,3.1631,3.1692,3.1762,3.1819,3.1859,3.1942,3.1964,3.2027,3.211,3.2158,3.2263,3.2285,3.2387,3.2393,3.2362,3.2365,3.2412,3.2406,3.2558,3.258,3.2476,3.2477,3.2478,0,3.1437,3.1497,3.1585,3.1631,3.1672,3.1746,3.1795,3.1839,3.189,3.1976,3.2023,3.2107,3.2176,3.2308,3.2363,3.2443,3.245,3.2498,3.2462,3.2449,3.2448,3.2443,3.2449,3.2503,3.2504,3.2505,3.2505,0,3.1537,3.1557,3.1627,3.1706,3.1765,3.1829,3.1893,3.193,3.1984,3.2041,3.2125,3.2179,3.2286,3.2369,3.2454,3.2498,3.2511,3.2517,3.2532,3.252,3.2499,3.251,3.2377,3.2512,3.2512,3.2511,3.2511,3.251,3.1601,3.1655,3.1725,3.1802,3.1855,3.1915,3.1972,3.2019,3.209,3.2179,3.2202,3.229,3.2361,3.2477,3.2523,3.2594,3.2585,3.2608,3.2614,3.2618,3.2618,3.249,3.261,3.261,3.261,3.2609,3.2609,0,3.1699,3.1746,3.1817,3.1906,3.1967,3.1974,3.2046,3.2097,3.2174,3.2239,3.2307,3.2404,3.2485,3.2548,3.2631,3.2675,3.2683,3.2695,3.2691,3.2701,3.2622,3.2599,3.2688,3.2688,3.2687,3.2687,3.2687,3.2687,3.1758,3.1849,3.1878,3.1996,3.2043,3.2129,3.2169,3.2225,3.2276,3.2384,3.2451,3.2491,3.2555,3.2643,3.2718,3.2735,3.2763,3.2774,3.2791,3.2715,3.2707,3.2699,3.2677,3.2781,3.2781,3.2865,3.2865,3.2866]},{"header":{"parameterUnit":"m.s-1","parameterCategory":1,"la1":30.2991,"la2":30.254,"lo1":-89.0895,"lo2":-89.0444,"dy":0.0017,"dx":0.0017,"nx":28,"ny":28,"refTime":"2025-07-21T21:00:00:Z","depth":0,"parameterNumber":3,"parameterNumberName":"V-component_of_WINDS"},"data":[0,0,0,0,0,0,0,0,0,0,0,0,0,0,0,0,0,0,0,0,0,0,0,0,0,0,0,0,0,0,0,0,0,0,0,0,0,0,0,0,0,0,0,0,0,0,0,0,0,0,0,0,0,0,0,0,0,0,4.6683,4.6684,0,4.6697,4.6697,4.6697,4.6666,4.6665,4.6664,4.6663,4.6674,4.6675,4.6676,0,0,0,0,0,0,0,0,0,0,0,0,0,4.6628,4.6629,4.6683,4.6684,4.6684,4.6697,4.6697,4.6697,4.6666,4.6665,4.6663,4.6662,4.6673,4.6675,4.6676,0,0,0,0,0,0,0,0,0,0,0,0,0,4.6648,4.663,4.6683,4.667,4.6669,4.6696,4.6697,4.6697,4.6666,4.6665,4.6663,4.6662,4.6673,4.6674,4.6676,4.6717,0,0,4.6682,4.6683,0,0,0,0,0,0,0,0,4.6647,4.665,4.6672,4.6671,4.667,4.6678,4.6681,4.6704,4.6666,4.6667,4.6663,4.6661,4.6676,4.6677,4.6683,4.6717,4.6718,4.6682,4.6683,4.6684,4.6684,0,0,0,0,0,0,0,4.6645,4.6649,4.6688,4.6672,4.6671,4.6662,4.6663,4.6685,4.6679,4.6667,4.6665,4.6667,4.6675,4.6681,4.6683,4.6718,4.6682,4.6683,4.6685,4.6685,4.6785,4.6787,0,0,0,0,0,0,4.6646,4.6648,4.6688,4.6689,4.6654,4.6664,4.6666,4.6677,4.6679,4.6678,4.6668,4.6665,4.6679,4.6681,4.6683,4.673,4.6684,4.6685,4.6687,4.6784,4.6785,4.6787,0,0,0,0,0,0,4.6645,4.665,4.6687,4.6668,4.6672,4.6667,4.668,4.6678,4.6684,4.668,4.6679,4.6676,4.6678,4.6681,4.6709,4.673,4.6686,4.6688,4.6782,4.6784,4.6786,4.6825,0,0,0,0,0,0,4.6644,4.665,4.6666,4.6669,4.6673,4.6714,4.6681,4.6679,4.6688,4.6684,4.6687,4.6686,4.6677,4.6706,4.6711,4.6732,4.6689,4.678,4.6783,4.6786,4.6821,4.6828,4.6834,0,0,0,0,0,4.6642,4.6676,4.6667,4.6672,4.6693,4.6715,4.6717,4.6707,4.6689,4.6705,4.6702,4.6686,4.6727,4.6709,4.6714,4.6736,4.6778,4.6782,4.6785,4.6819,4.6827,4.6833,0,0,0,0,0,0,4.6675,4.6676,4.6666,4.6702,4.6709,4.671,4.6729,4.6716,4.6727,4.6724,4.671,4.6711,4.6741,4.6741,4.6721,4.6775,4.675,4.6754,4.6773,4.6781,4.6787,4.6785,4.6691,0,0,0,0,0,4.6687,4.6705,4.6705,4.6736,4.674,4.6734,4.6743,4.6735,4.6741,4.6743,4.6743,4.6748,4.6762,4.6772,4.6785,4.6822,4.6821,4.6839,4.6845,4.685,4.6854,4.6872,4.688,4.6799,4.6799,4.6799,0,0,4.6711,4.6713,4.6726,4.6743,4.6747,4.6765,4.6737,4.6757,4.677,4.6746,4.6772,4.6772,4.6777,4.681,4.6824,4.6811,4.6877,4.6855,4.6859,4.686,4.6877,4.6884,4.6891,4.6801,4.6801,4.68,0,0,4.6763,4.6768,4.6794,4.6799,4.6806,4.6802,4.6808,4.6811,4.681,4.6837,4.6819,4.6834,4.6859,4.6863,4.6868,4.6922,4.6907,4.6927,4.6958,4.6976,4.6983,4.6988,4.7006,4.7013,4.6931,4.6931,4.6931,0,4.6792,4.6819,4.6809,4.6831,4.6839,4.6819,4.6845,4.685,4.686,4.6865,4.6851,4.6882,4.6884,4.6916,4.693,4.6935,4.6941,4.6926,4.6983,4.6988,4.6993,4.701,4.7017,4.6933,4.6933,4.6933,4.6933,0,4.6853,4.6873,4.6893,4.6904,4.6914,4.6938,4.6931,4.6942,4.6933,4.693,4.6956,4.6959,4.6971,4.6979,4.697,4.701,4.7001,4.6986,4.6959,4.7004,4.7019,4.7026,4.6937,4.6936,4.6935,4.6935,0,0,4.6926,4.6932,4.6939,4.6944,4.695,4.6964,4.6987,4.7,4.7009,4.7017,4.7035,4.7057,4.7042,4.7048,4.704,4.7056,4.7097,4.7038,4.7038,4.7047,4.714,4.715,4.7158,4.7088,4.7089,4.709,4.7139,0,4.6977,4.7016,4.7008,4.7046,4.7063,4.7044,4.7064,4.7069,4.7067,4.708,4.7078,4.7093,4.7073,4.7076,4.7092,4.7089,4.7115,4.7085,4.7102,4.7103,4.71,4.7167,4.7178,4.7224,4.7145,4.7146,4.7147,0,4.7041,4.7052,4.7092,4.7095,4.7102,4.712,4.7131,4.7144,4.715,4.7147,4.7154,4.7142,4.7163,4.7139,4.7167,4.7147,4.7153,4.7153,4.7155,4.7155,4.7127,4.7167,4.7239,4.7245,4.7157,4.7156,4.7155,0,4.7088,4.7113,4.714,4.7145,4.7149,4.7162,4.7164,4.7168,4.7177,4.7186,4.7191,4.7203,4.7209,4.7218,4.7209,4.7192,4.7238,4.7213,4.7236,4.7236,4.7245,4.7244,4.7317,4.7252,4.7252,4.7251,4.7251,0,4.7144,4.7169,4.7161,4.7177,4.7204,4.7195,4.7221,4.7221,4.7225,4.7241,4.7226,4.724,4.7229,4.7242,4.7236,4.7259,4.7262,4.726,4.7257,4.726,4.7261,4.7263,4.7259,4.7253,4.7253,4.7253,4.7252,0,4.7201,4.7197,4.7224,4.7227,4.7228,4.7248,4.7249,4.7264,4.7261,4.7281,4.7285,4.728,4.7295,4.7288,4.7303,4.7299,4.7329,4.7323,4.7327,4.7325,4.7347,4.7345,4.7424,4.7433,4.7363,4.7364,4.7364,0,4.7236,4.7255,4.726,4.7269,4.7273,4.7289,4.7297,4.7288,4.7298,4.7305,4.7319,4.7333,4.7343,4.7368,4.7365,4.7376,4.737,4.7397,4.7371,4.7373,4.7368,4.7367,4.7368,4.7401,4.7402,4.7403,4.7403,0,4.7299,4.7296,4.731,4.7322,4.7333,4.7343,4.735,4.7359,4.735,4.7361,4.7377,4.7385,4.7401,4.7414,4.7425,4.7426,4.7413,4.7412,4.7417,4.7419,4.7421,4.7419,4.7339,4.7409,4.7409,4.7408,4.7408,4.7408,4.7345,4.7361,4.7367,4.7382,4.7387,4.7395,4.7409,4.7408,4.7421,4.7434,4.7428,4.7445,4.745,4.7462,4.7465,4.7478,4.7468,4.7476,4.7478,4.748,4.7482,4.742,4.748,4.748,4.748,4.748,4.748,0,4.7406,4.7409,4.7423,4.7435,4.7447,4.7435,4.7443,4.7454,4.747,4.7476,4.7487,4.7504,4.7517,4.7516,4.7527,4.7538,4.7532,4.7541,4.754,4.754,4.7492,4.7485,4.7546,4.7546,4.7546,4.7546,4.7546,4.7546,4.7439,4.7464,4.7462,4.749,4.7492,4.751,4.7516,4.7523,4.7527,4.7548,4.7559,4.7558,4.7561,4.7573,4.7584,4.7583,4.7587,4.7599,4.7595,4.755,4.7543,4.7537,4.7531,4.76,4.76,4.7642,4.7643,4.7643]}]]